Manchester, NH

7:34 AM EDT on March 29, 2017 (GMT -0400)
Manchester

Weather History for KMHT - June, 2013

Change the Weather History Date:

Monday, June 24, 2013

  Actual Average Record
Temperature  
Mean Temperature 82 °F 70 °F  
Max Temperature 95 °F 80 °F 97 °F (1989)
Min Temperature 71 °F 59 °F 41 °F (1958)
Degree Days  
Heating Degree Days 0 1  
Month to date heating degree days 56  
Since 1 June heating degree days 56  
Since 1 July heating degree days 6390  
Cooling Degree Days 18 5  
Month to date cooling degree days 85  
Year to date cooling degree days 115  
Since 1 June cooling degree days 85  
Growing Degree Days 32 (Base 50)    
Moisture  
Dew Point 66 °F    
Average Humidity 65    
Maximum Humidity 90    
Minimum Humidity 36    
Precipitation  
Precipitation 0.02 in 0.13 in 0.94 in (1989)
Month to date precipitation 3.12  
Year to date precipitation 21.16  
Snow  
Snow 0.00 in - - ()
Month to date snowfall  
Since 1 July snowfall  
Snow Depth -    
Sea Level Pressure  
Sea Level Pressure 29.95 in    
Wind  
Wind Speed 7 mph (WSW)    
Max Wind Speed 20 mph    
Max Gust Speed 25 mph    
Visibility 10 miles    
Events Rain , Thunderstorm    
T = Trace of Precipitation, MM = Missing Value Source: NWS Daily Summary

Daily Weather History Graph

Daily Weather History Graph

Search for Another Location

Airport or City:

Trip Planner

Search our weather history database for the weather conditions in past years. The results will help you decide how hot, cold, wet, or windy it might be!

Date:

Astronomy

Jun. 24, 2013 Rise Set
Actual Time 5:07 AM EDT 8:28 PM EDT
Civil Twilight 4:32 AM EDT 9:03 PM EDT
Nautical Twilight 3:46 AM EDT 9:49 PM EDT
Astronomical Twilight 2:49 AM EDT 10:46 PM EDT
Moon 9:25 PM EDT (6/24) 6:34 AM EDT (6/24)
Length of Visible Light 16h 31m
Length of Day
15h 20m
Full, 98% of the Moon is Illuminated
Jun 24
Full
Jun 30
Last Quarter
Jul 8
New
Jul 15
First Quarter
Jul 22
Full

Hourly Weather History & Observations

Time (EDT) Temp. Heat Index Dew Point Humidity Pressure Visibility Wind Dir Wind Speed Gust Speed Precip Events Conditions
12:53 AM 75.9 °F - 68.0 °F 76% 30.01 in 10.0 mi SSW 5.8 mph - N/A   Mostly Cloudy
1:53 AM 75.9 °F - 68.0 °F 76% 30.00 in 10.0 mi SSW 4.6 mph - N/A   Mostly Cloudy
2:53 AM 75.9 °F - 68.0 °F 76% 29.99 in 10.0 mi SSW 6.9 mph - N/A   Scattered Clouds
3:53 AM 73.9 °F - 68.0 °F 82% 29.99 in 10.0 mi SSE 4.6 mph - N/A   Clear
4:53 AM 73.0 °F - 68.0 °F 84% 29.98 in 10.0 mi South 4.6 mph - N/A   Scattered Clouds
5:53 AM 73.0 °F - 68.0 °F 84% 29.98 in 10.0 mi South 5.8 mph - N/A   Mostly Cloudy
6:53 AM 73.9 °F - 68.0 °F 82% 29.98 in 10.0 mi SSW 5.8 mph - N/A   Clear
7:53 AM 75.9 °F - 69.1 °F 79% 29.99 in 10.0 mi SSW 3.5 mph - N/A   Clear
8:53 AM 82.0 °F 84.9 °F 68.0 °F 62% 29.97 in 10.0 mi Variable 6.9 mph - N/A   Clear
9:53 AM 84.9 °F 87.6 °F 66.9 °F 55% 29.96 in 10.0 mi WNW 8.1 mph - N/A   Clear
10:53 AM 89.1 °F 91.0 °F 64.9 °F 45% 29.96 in 10.0 mi WNW 15.0 mph 19.6 mph N/A   Clear
11:53 AM 91.0 °F 93.0 °F 64.9 °F 42% 29.95 in 10.0 mi WNW 9.2 mph - N/A   Clear
12:53 PM 91.9 °F 93.3 °F 64.0 °F 39% 29.95 in 10.0 mi WNW 12.7 mph - N/A   Clear
1:53 PM 93.0 °F 94.2 °F 63.0 °F 37% 29.93 in 10.0 mi West 10.4 mph 16.1 mph N/A   Partly Cloudy
2:53 PM 93.0 °F 93.8 °F 62.1 °F 36% 29.91 in 10.0 mi West 9.2 mph - N/A   Partly Cloudy
3:53 PM 93.0 °F 94.2 °F 63.0 °F 37% 29.90 in 10.0 mi NW 8.1 mph - N/A   Partly Cloudy
4:53 PM 91.9 °F 94.5 °F 66.0 °F 42% 29.88 in 10.0 mi WSW 10.4 mph - N/A   Partly Cloudy
5:53 PM 90.0 °F 92.8 °F 66.9 °F 46% 29.89 in 10.0 mi West 8.1 mph - N/A Thunderstorm Thunderstorm
6:20 PM 82.4 °F 83.4 °F 62.6 °F 51% 29.89 in 10.0 mi NNE 19.6 mph 25.3 mph N/A Thunderstorm Thunderstorm
6:53 PM 77.0 °F - 66.0 °F 69% 29.94 in 10.0 mi NE 4.6 mph - 0.00 in Rain , Thunderstorm Light Thunderstorms and Rain
7:12 PM 77.0 °F - 66.2 °F 69% 29.90 in 10.0 mi NNE 5.8 mph - 0.00 in Rain Light Rain
7:53 PM 75.9 °F - 68.0 °F 76% 29.93 in 10.0 mi Calm Calm - 0.00 in   Partly Cloudy
8:53 PM 73.9 °F - 68.0 °F 82% 29.95 in 10.0 mi Variable 4.6 mph - 0.00 in Rain Light Rain
9:53 PM 72.0 °F - 68.0 °F 87% 29.96 in 10.0 mi Calm Calm - 0.02 in Rain Light Rain
10:53 PM 72.0 °F - 66.9 °F 84% 29.95 in 10.0 mi South 4.6 mph - 0.00 in Rain Light Rain
11:53 PM 71.1 °F - 68.0 °F 90% 29.94 in 10.0 mi Calm Calm - 0.00 in   Clear